Temp
52 52 52 52 52 52 52 52 53 53 53 54 54 54 54 54 54 56 62 58 55 59 65 69 70 65 68 67 61 60 68 73 74 67 69 71 69 74 70 72 69 65 62 68 70 66 62 81 80 73 73 79 81 82
52 52 52 52 52 52 52 52 52 53 53 53 54 53 54 53 53 54 58 63 60 51 63 68 70 72 71 71 67 72 69 68 72 69 71 61 64 70 66 56 72 53 60 58 70 67 73 79 77 79 81 78 79 79
51 51 52 51 51 52 52 52 52 53 53 53 53 53 53 53 53 53 53 56 57 56 65 69 70 75 79 77 79 66 73 70 71 71 71 71 56 67 61 63 61 73 76 73 69 73 74 76 78 80 82 78 79 80
51 51 52 51 51 52 52 52 52 52 52 53 53 53 53 53 52 52 53 58 56 57 56 68 78 72 77 78 76 76 73 73 72 73 70 68 64 68 57 60 66 73 59 68 72 74 74 77 78 77 76 78 78 79
50 51 51 51 51 51 52 52 52 52 53 53 53 53 53 52 52 53 55 59 59 51 53 63 71 76 77 75 73 75 72 69 71 68 65 65 69 66 71 73 72 74 69 63 61 74 75 73 76 77 74 74 75 73
50 51 51 51 51 52 52 52 52 52 52 52 52 52 52 52 51 54 50 63 63 58 45 57 72 69 72 72 71 70 72 71 71 67 64 70 68 64 59 63 74 78 71 81 68 62 73 77 77 78 75 75 73 72
50 50 51 51 51 51 52 51 51 52 52 52 52 51 51 51 57 56 51 55 59 59 46 54 65 71 72 72 72 71 72 72 71 65 65 67 66 65 62 57 64 61 69 66 66 63 67 75 73 78 76 75 71 72
50 50 50 51 51 51 51 51 51 51 52 52 51 51 51 52 52 54 60 54 58 51 53 49 62 65 72 67 62 74 69 70 70 68 66 67 63 64 52 62 68 58 57 76 76 78 78 79 77 72 75 75 67 64
50 50 50 51 51 51 51 51 52 51 51 51 52 52 56 57 53 55 55 56 61 51 48 52 53 56 72 68 67 69 71 63 72 63 64 64 62 54 60 60 62 72 73 74 78 76 77 75 69 68 72 70 64 62
50 50 50 50 51 51 51 51 51 51 51 51 57 57 49 58 52 56 54 48 47 54 55 52 63 55 65 59 59 59 66 62 60 66 72 63 61 67 70 71 74 75 76 77 73 71 73 71 66 64 68 70 66 64
50 50 50 50 50 50 51 51 51 50 54 64 62 60 64 55 62 55 46 45 52 47 54 55 54 53 68 54 54 58 56 61 54 63 63 61 61 67 71 71 76 77 77 77 77 77 78 78 70 65 66 67 64 66
50 50 50 50 50 50 50 50 51 56 58 52 51 57 62 58 52 47 47 51 50 46 52 55 51 49 57 60 56 56 53 58 51 68 62 57 66 72 73 73 75 78 78 78 78 76 78 77 73 67 68 65 64 66
50 50 50 50 50 50 50 50 50 51 53 56 49 46 56 52 38 43 41 48 45 46 54 53 48 49 51 55 53 53 51 52 66 56 57 64 71 74 75 78 78 79 79 79 78 77 77 72 68 67 64 63 64 62
50 50 50 50 50 50 50 50 50 53 55 56 44 35 41 42 47 49 50 52 57 55 57 60 54 53 53 49 49 49 56 57 51 50 55 58 65 72 75 78 77 77 78 77 75 71 69 65 63 63 61 60 59 56
49 49 49 50 49 50 51 50 51 57 58 52 54 38 52 56 55 56 61 60 60 60 58 55 56 53 51 49 53 49 47 49 54 50 52 59 64 65 66 71 74 73 73 70 67 66 62 59 56 55 55 55 56 57
49 49 52 51 51 51 50 53 57 61 59 54 52 52 59 52 51 57 59 56 61 57 61 56 45 42 42 50 46 48 49 48 47 53 58 60 63 62 63 66 66 65 64 63 63 60 57 55 53 52 54 55 56 57
48 50 51 50 50 50 50 54 61 51 53 50 55 62 60 57 53 54 57 56 60 58 43 45 38 37 44 47 50 56 47 50 56 56 59 57 59 59 61 60 59 59 59 58 57 56 55 55 54 53 51 52 54 56
49 54 50 50 52 55 59 58 57 52 46 55 54 61 64 62 60 61 60 60 57 48 45 44 46 44 41 38 43 49 57 61 63 62 59 62 62 62 59 56 57 58 56 56 55 54 55 55 53 52 53 54 56 57
53 53 50 50 52 53 55 55 58 48 53 59 60 62 63 62 61 58 55 51 47 47 45 46 44 43 45 50 49 51 52 54 52 60 61 60 57 57 55 55 54 53 53 53 54 52 52 53 53 55 55 55 56 61
50 50 50 50 50 55 47 53 59 51 50 57 60 60 56 53 51 47 46 46 46 47 44 43 45 46 46 48 49 49 51 53 52 50 52 54 55 54 54 53 52 53 52 52 53 51 53 54 56 58 58 60 61 59
48 51 50 51 57 56 54 55 53 57 56 55 61 53 47 45 44 45 46 49 46 46 44 47 47 49 50 50 51 52 52 52 51 51 50 50 52 52 52 52 53 52 52 53 53 53 53 56 55 57 58 64 64 61
53 51 52 55 53 52 52 60 53 55 52 55 48 42 39 41 43 45 46 45 46 47 48 47 47 48 48 48 49 50 52 53 54 52 50 50 50 50 51 52 53 52 53 54 54 53 56 60 54 56 60 61 59 69
49 54 58 54 47 44 41 58 44 46 40 40 40 38 40 43 44 48 43 44 45 49 49 49 50 50 48 49 50 50 51 51 49 50 51 52 52 52 52 53 53 50 49 50 55 56 54 48 50 55 61 68 69 68
48 53 46 47 48 40 52 44 46 41 40 37 36 37 39 41 45 42 40 43 46 48 48 48 49 48 48 48 47 47 50 50 49 49 50 50 49 49 50 50 50 50 50 50 50 50 49 49 48 53 52 55 62 65
42 39 43 32 47 39 36 37 37 36 34 37 37 38 41 44 39 38 37 41 44 44 45 47 46 47 46 46 47 48 52 53 50 48 50 51 50 50 50 51 51 51 52 51 50 49 50 52 55 60 65 65 64 63
33 42 36 40 37 36 37 34 35 35 37 39 40 44 48 42 37 34 37 41 43 45 45 46 46 46 45 46 47 50 52 57 61 55 55 59 60 58 57 56 55 57 63 66 63 61 60 61 61 61 61 58 48 60
33 35 41 45 41 38 36 37 38 37 41 40 46 46 43 36 34 39 45 46 45 47 49 52 52 52 57 62 65 66 68 69 67 66 69 69 69 68 66 63 61 65 69 68 68 66 64 64 63 63 65 67 66 66
36 34 32 37 37 38 36 39 42 43 47 54 51 41 38 39 38 46 52 55 56 58 60 64 65 68 69 69 70 70 69 70 69 70 70 69 69 68 67 68 66 47 64 64 67 69 68 68 68 67 66 66 68 69
35 39 37 39 42 41 47 47 48 53 60 57 50 47 46 50 55 55 58 63 67 66 64 64 67 72 72 72 73 74 73 72 67 63 61 62 64 66 70 70 70 70 69 67 42 53 59 63 64 66 66 67 68 69
49 52 48 47 44 44 51 55 54 59 61 60 60 59 59 60 63 69 69 68 69 69 70 71 72 71 70 69 68 69 72 73 72 68 64 63 65 70 71 70 70 71 71 70 69 66 47 59 54 65 65 67 67 67
56 54 50 48 46 52 56 60 63 63 64 63 64 61 60 62 67 70 70 71 71 73 71 70 70 71 70 70 68 66 65 70 70 70 71 71 71 70 70 71 71 71 71 70 70 70 69 67 68 66 65 62 62 59
57 54 52 50 52 60 63 59 60 60 61 61 61 64 63 60 57 65 72 72 71 69 61 68 69 69 72 73 72 71 58 72 71 71 70 71 70 71 74 75 74 72 71 70 70 70 69 66 65 64 62 60 60 60
60 59 58 55 53 53 58 58 56 56 60 57 59 62 60 59 55 61 72 75 72 71 69 69 72 72 71 71 72 71 65 71 59 46 48 45 43 52 66 73 72 71 70 70 70 70 68 67 67 66 64 63 62 62
MSLP
1026.19 1025.94 1025.66 1025.35 1024.97 1024.58 1024.24 1023.89 1023.54 1023.24 1022.83 1022.43 1022.06 1021.65 1021.32 1020.97 1020.62 1019.93 1018.01 1018.86 1018.08 1014.71 1011.59 1010.54 1009.56 1009.19 1008.23 1006.96 1006.08 1006.43 1005.46 1003.80 1002.74 1002.16 1001.15 1000.26 999.72 999.16 999.38 999.18 999.74 1001.06 1000.83 999.95 999.43 999.05 999.25 999.71 999.98 1000.01 1001.30 1001.79 1001.93 1002.15
1026.02 1025.79 1025.49 1025.15 1024.88 1024.55 1024.14 1023.72 1023.42 1023.02 1022.67 1022.34 1021.99 1021.63 1021.32 1021.08 1020.74 1020.37 1018.41 1018.30 1018.56 1017.52 1012.60 1011.63 1010.73 1009.97 1009.44 1008.89 1008.54 1006.01 1005.17 1004.72 1004.13 1003.33 1002.27 1003.33 1002.10 1001.20 1001.32 1000.76 1001.47 1001.59 1002.55 1001.49 999.62 999.81 1001.07 1000.93 1001.53 1002.02 1002.04 1002.81 1003.30 1003.72
1025.72 1025.52 1025.26 1025.02 1024.76 1024.43 1024.05 1023.67 1023.28 1022.91 1022.55 1022.19 1021.91 1021.57 1021.23 1020.96 1020.72 1020.54 1019.52 1018.87 1018.10 1015.87 1011.92 1010.10 1008.62 1008.74 1008.90 1008.89 1008.79 1007.64 1005.97 1006.58 1006.37 1006.55 1004.79 1003.90 1004.13 1003.92 1003.12 1002.24 1002.08 1001.27 1001.64 1000.90 1000.39 1001.06 1001.59 1002.28 1002.62 1002.63 1002.78 1003.80 1004.49 1005.02
1025.42 1025.22 1024.96 1024.75 1024.51 1024.18 1023.85 1023.49 1023.15 1022.85 1022.46 1022.08 1021.69 1021.38 1021.04 1020.79 1020.54 1020.40 1019.34 1018.82 1018.44 1016.34 1012.86 1008.74 1008.64 1008.64 1008.83 1008.73 1008.70 1008.59 1008.34 1008.07 1007.74 1006.94 1005.71 1004.96 1004.17 1004.97 1004.61 1004.88 1003.73 1002.40 1002.97 1002.08 1001.08 1001.87 1002.55 1002.52 1002.79 1003.42 1004.54 1005.14 1005.70 1006.23
1025.13 1024.93 1024.70 1024.53 1024.30 1023.98 1023.59 1023.27 1022.92 1022.52 1022.11 1021.72 1021.36 1020.98 1020.66 1020.50 1020.33 1019.97 1019.16 1018.46 1018.39 1017.90 1014.27 1010.30 1009.00 1008.24 1008.31 1008.52 1008.60 1008.48 1008.50 1008.38 1007.26 1006.70 1006.13 1005.75 1006.16 1006.30 1004.86 1003.73 1002.22 1002.15 1002.59 1003.70 1002.63 1002.08 1002.33 1002.70 1003.79 1004.66 1005.48 1006.18 1006.92 1007.67
1024.86 1024.71 1024.50 1024.29 1023.98 1023.66 1023.29 1022.92 1022.51 1022.10 1021.70 1021.27 1020.83 1020.48 1020.19 1019.98 1019.96 1019.19 1018.04 1017.29 1017.72 1017.97 1016.61 1011.51 1008.66 1008.29 1008.26 1008.35 1008.36 1008.18 1008.02 1008.09 1007.50 1006.72 1007.01 1006.86 1007.46 1007.39 1005.83 1003.79 1002.70 1002.52 1003.76 1002.76 1004.07 1004.92 1003.86 1002.48 1004.07 1005.02 1005.64 1006.71 1007.70 1008.45
1024.58 1024.46 1024.25 1024.04 1023.74 1023.41 1023.03 1022.60 1022.12 1021.63 1021.14 1020.65 1020.21 1019.77 1019.42 1019.34 1018.80 1017.83 1017.82 1017.88 1017.80 1018.26 1016.78 1012.32 1007.71 1007.79 1008.12 1007.87 1007.69 1007.69 1007.79 1007.32 1007.24 1007.03 1006.60 1006.51 1007.37 1008.07 1006.90 1005.95 1005.32 1004.69 1004.44 1005.69 1003.80 1006.50 1004.96 1003.99 1004.50 1005.40 1006.35 1007.04 1008.32 1009.24
1024.27 1024.14 1023.93 1023.68 1023.42 1023.10 1022.71 1022.23 1021.66 1021.05 1020.46 1019.93 1019.44 1018.98 1018.59 1018.58 1018.74 1017.76 1017.48 1018.23 1018.14 1017.87 1016.19 1013.14 1008.35 1007.35 1007.82 1007.25 1006.76 1006.77 1006.65 1006.90 1006.53 1006.30 1006.57 1006.05 1007.07 1007.75 1007.01 1006.41 1005.68 1005.81 1006.49 1004.08 1004.27 1004.23 1003.58 1004.29 1005.15 1006.51 1007.12 1007.65 1008.98 1010.04
1023.90 1023.84 1023.64 1023.40 1023.14 1022.81 1022.41 1021.88 1021.21 1020.47 1019.80 1019.31 1018.92 1018.61 1018.14 1017.72 1017.19 1017.25 1017.88 1017.98 1017.75 1017.94 1015.50 1013.04 1010.04 1008.31 1007.77 1007.03 1007.26 1006.86 1006.09 1005.45 1005.48 1005.42 1005.38 1005.85 1005.65 1005.87 1005.50 1005.56 1005.27 1004.46 1004.14 1003.79 1003.80 1004.31 1004.25 1004.78 1006.70 1007.62 1007.64 1008.35 1009.56 1010.40
1023.45 1023.48 1023.36 1023.18 1022.90 1022.58 1022.19 1021.66 1020.92 1019.97 1018.99 1018.51 1018.34 1017.42 1016.69 1016.56 1017.37 1017.49 1017.63 1017.25 1017.30 1016.39 1015.02 1012.85 1010.65 1009.29 1008.90 1008.61 1007.93 1007.88 1006.27 1005.03 1003.80 1003.63 1003.87 1004.10 1003.84 1004.26 1004.34 1004.58 1003.73 1003.35 1003.50 1003.88 1003.66 1003.94 1004.58 1005.42 1007.07 1008.08 1008.25 1008.66 1009.83 1010.73
1022.96 1023.04 1023.04 1022.90 1022.70 1022.41 1022.04 1021.58 1020.90 1019.80 1017.79 1016.99 1016.37 1015.68 1015.95 1016.70 1016.40 1015.90 1015.92 1015.81 1014.86 1014.29 1013.49 1012.60 1012.10 1011.31 1009.99 1009.56 1009.04 1008.63 1007.01 1005.11 1003.60 1002.43 1002.24 1002.32 1002.00 1002.32 1003.18 1003.16 1003.09 1003.31 1003.61 1003.71 1003.87 1003.98 1004.39 1004.80 1006.67 1008.19 1008.79 1009.27 1010.33 1010.83
1022.50 1022.56 1022.62 1022.60 1022.46 1022.21 1021.87 1021.49 1021.02 1019.63 1019.08 1019.79 1019.60 1018.23 1016.63 1015.26 1015.19 1014.79 1014.21 1013.61 1013.44 1012.97 1012.97 1012.41 1012.54 1012.73 1011.62 1010.85 1009.74 1008.66 1007.26 1005.55 1003.69 1002.36 1001.38 1000.87 1000.97 1000.86 1001.46 1001.95 1002.28 1002.46 1002.96 1003.28 1003.65 1004.11 1004.43 1005.07 1006.40 1008.37 1008.89 1009.77 1010.70 1011.30
1022.01 1022.13 1022.20 1022.22 1022.17 1021.96 1021.64 1021.32 1021.02 1020.61 1019.74 1018.86 1018.87 1017.59 1015.37 1014.80 1014.44 1013.52 1012.73 1012.15 1012.65 1013.23 1012.60 1012.38 1012.37 1012.51 1012.12 1011.58 1010.24 1008.92 1007.09 1005.18 1003.60 1002.89 1001.49 1000.49 999.98 1000.30 1000.51 1000.43 1001.04 1001.68 1002.19 1002.86 1003.44 1004.21 1004.94 1005.98 1007.58 1008.71 1009.72 1010.56 1011.28 1012.34
1021.52 1021.70 1021.79 1021.82 1021.80 1021.64 1021.37 1021.02 1020.77 1020.14 1018.95 1016.55 1017.04 1016.26 1015.21 1013.86 1013.16 1012.46 1012.13 1012.21 1012.33 1012.19 1011.67 1011.11 1011.20 1011.39 1011.02 1010.85 1010.15 1008.33 1006.63 1005.64 1004.20 1002.84 1001.51 1001.64 1001.44 1000.74 1000.72 1000.73 1000.94 1001.27 1001.95 1002.89 1003.84 1005.49 1006.61 1007.72 1008.86 1009.85 1010.80 1011.49 1012.35 1013.09
1021.09 1021.27 1021.37 1021.35 1021.26 1021.09 1020.88 1020.66 1020.40 1019.55 1017.55 1016.12 1015.17 1014.51 1012.77 1012.57 1012.56 1012.17 1011.77 1011.67 1011.60 1011.77 1011.54 1011.38 1011.06 1011.29 1010.60 1010.16 1009.60 1008.62 1007.01 1004.95 1003.65 1003.64 1003.79 1003.38 1003.02 1002.91 1002.81 1002.48 1001.92 1002.58 1003.26 1004.21 1005.84 1006.94 1008.13 1009.42 1010.45 1011.34 1011.98 1012.63 1013.14 1013.55
1020.74 1020.99 1020.49 1020.57 1020.68 1020.65 1020.58 1019.95 1019.01 1018.08 1016.87 1015.82 1014.78 1013.02 1012.03 1012.47 1012.10 1011.67 1011.49 1011.52 1011.70 1012.06 1011.67 1011.79 1012.08 1011.82 1010.99 1009.57 1008.95 1007.64 1006.08 1005.10 1005.52 1005.33 1004.94 1004.42 1004.07 1004.15 1004.02 1004.01 1004.44 1004.86 1005.55 1006.43 1007.32 1008.52 1009.64 1010.60 1011.43 1012.18 1012.96 1013.45 1014.02 1014.48
1020.53 1019.94 1020.02 1020.43 1020.46 1020.38 1020.24 1019.65 1017.66 1017.19 1016.03 1015.04 1013.02 1012.32 1012.20 1011.92 1012.03 1011.94 1011.72 1011.90 1012.28 1012.17 1012.93 1012.72 1012.54 1012.31 1011.53 1009.28 1007.77 1007.00 1006.73 1006.33 1005.86 1005.93 1005.64 1005.49 1005.22 1005.18 1005.19 1005.66 1006.10 1006.64 1007.46 1008.09 1009.02 1009.85 1010.67 1011.46 1012.08 1012.81 1013.52 1014.40 1014.90 1015.59
1019.63 1019.45 1020.12 1020.33 1020.19 1019.15 1018.50 1018.47 1017.03 1016.42 1015.38 1014.00 1012.76 1011.74 1011.97 1011.92 1011.84 1011.67 1011.78 1012.36 1013.14 1013.72 1013.62 1013.01 1012.70 1011.68 1010.77 1009.84 1008.79 1008.25 1007.38 1006.91 1006.55 1006.17 1006.11 1005.84 1005.67 1005.81 1006.27 1006.88 1007.43 1008.06 1008.75 1009.54 1010.20 1010.87 1011.54 1012.25 1013.06 1013.91 1014.52 1015.17 1015.63 1016.01
1019.02 1019.29 1020.10 1020.26 1020.04 1019.34 1017.81 1017.39 1016.98 1015.67 1014.34 1013.28 1012.88 1012.42 1012.14 1012.00 1012.27 1012.84 1013.28 1013.77 1014.20 1014.32 1014.08 1013.05 1012.23 1011.16 1010.51 1010.13 1009.73 1009.19 1008.78 1008.29 1007.75 1006.78 1006.67 1006.64 1006.62 1007.09 1007.50 1008.18 1008.67 1009.30 1009.92 1010.55 1011.18 1011.95 1012.73 1013.25 1013.74 1014.39 1014.86 1015.25 1015.38 1015.58
1019.56 1019.94 1020.18 1020.25 1020.12 1018.39 1017.70 1017.04 1017.06 1015.78 1014.30 1013.20 1013.10 1012.55 1013.30 1013.43 1013.89 1013.84 1013.78 1013.73 1013.67 1013.47 1013.13 1012.53 1011.67 1011.41 1011.20 1010.75 1010.27 1009.68 1008.98 1008.37 1007.95 1007.47 1007.28 1007.37 1007.83 1008.21 1008.71 1009.16 1009.90 1010.59 1011.27 1011.86 1012.52 1013.22 1013.99 1014.46 1014.72 1014.86 1015.03 1014.96 1015.06 1015.60
1019.87 1019.96 1020.23 1020.10 1018.75 1018.36 1017.56 1016.54 1015.93 1015.36 1014.70 1014.07 1013.55 1014.15 1014.56 1014.80 1014.45 1014.06 1013.73 1013.63 1013.26 1013.00 1012.70 1012.26 1011.98 1011.52 1011.02 1010.64 1010.10 1009.52 1008.84 1008.21 1008.11 1008.00 1008.25 1008.59 1008.91 1009.29 1009.91 1010.54 1011.08 1011.88 1012.40 1013.11 1013.65 1014.06 1014.45 1014.83 1015.15 1015.14 1015.15 1015.08 1015.30 1015.74
1019.43 1019.90 1019.70 1019.34 1018.57 1018.20 1017.56 1016.69 1016.31 1015.99 1015.65 1014.52 1015.22 1015.96 1015.55 1015.08 1014.58 1014.35 1014.23 1013.76 1013.33 1013.03 1012.76 1012.56 1012.21 1011.79 1011.42 1011.02 1010.54 1009.97 1009.68 1009.50 1009.46 1009.37 1009.48 1009.77 1010.25 1010.66 1011.24 1011.92 1012.49 1013.14 1013.66 1014.08 1014.51 1014.96 1015.33 1015.59 1016.04 1015.71 1015.46 1015.50 1015.58 1015.49
1019.62 1019.06 1018.41 1018.59 1018.33 1018.26 1017.70 1016.87 1017.03 1016.88 1016.50 1016.36 1016.55 1016.21 1015.73 1015.30 1015.14 1014.75 1014.60 1014.48 1014.14 1013.68 1013.17 1012.83 1012.53 1012.35 1012.06 1011.78 1011.32 1011.05 1010.90 1010.69 1010.76 1010.78 1010.86 1011.09 1011.38 1012.00 1012.66 1013.32 1013.74 1014.24 1014.94 1015.52 1015.64 1016.02 1016.51 1016.80 1016.59 1016.49 1016.00 1015.36 1015.47 1015.94
1019.20 1018.63 1018.33 1018.21 1018.21 1018.18 1017.43 1017.36 1017.53 1017.48 1017.39 1017.08 1016.76 1016.31 1016.16 1015.92 1015.81 1015.65 1015.53 1015.15 1014.66 1014.01 1013.70 1013.51 1013.22 1012.97 1012.69 1012.44 1012.41 1012.42 1012.25 1011.90 1011.98 1012.25 1012.52 1012.57 1013.09 1013.76 1014.18 1014.68 1015.12 1015.62 1016.01 1016.47 1016.69 1017.05 1017.32 1017.39 1017.61 1017.58 1017.07 1016.85 1016.57 1016.27
1019.44 1019.72 1019.23 1019.24 1018.52 1018.61 1018.42 1017.97 1017.91 1017.80 1017.46 1017.06 1016.65 1016.50 1016.24 1016.33 1016.34 1016.80 1017.19 1016.79 1015.93 1015.44 1015.07 1014.51 1014.23 1013.92 1013.89 1013.94 1013.73 1013.52 1013.36 1012.87 1012.89 1013.20 1013.82 1013.89 1014.19 1014.65 1015.25 1015.67 1016.10 1016.52 1016.79 1016.79 1017.25 1017.46 1017.70 1017.63 1017.42 1017.03 1016.70 1016.62 1016.76 1016.95
1019.69 1019.31 1019.46 1019.00 1019.14 1019.02 1018.71 1018.37 1018.00 1017.58 1017.02 1016.48 1016.31 1016.27 1016.12 1016.55 1017.11 1017.93 1018.30 1018.04 1017.28 1016.85 1016.34 1015.93 1015.59 1015.13 1014.88 1014.72 1014.34 1013.96 1013.68 1013.56 1013.50 1013.87 1014.29 1014.19 1014.36 1014.58 1015.03 1015.46 1015.96 1016.32 1016.07 1015.94 1016.35 1016.75 1016.94 1017.08 1017.19 1017.26 1017.49 1017.75 1017.88 1017.52
1019.95 1019.62 1019.43 1019.63 1019.43 1019.22 1018.87 1018.40 1017.93 1017.10 1015.99 1015.67 1015.46 1015.57 1016.22 1017.18 1018.30 1019.08 1018.93 1018.80 1018.13 1017.49 1016.68 1016.10 1015.62 1014.93 1014.37 1014.01 1013.91 1013.89 1013.78 1013.66 1013.59 1013.73 1013.75 1013.86 1014.04 1014.17 1014.46 1014.95 1015.41 1015.68 1015.78 1015.92 1016.07 1016.28 1016.55 1016.84 1017.13 1017.21 1017.24 1017.27 1017.39 1017.43
1020.26 1020.05 1019.66 1019.37 1019.10 1018.66 1017.93 1017.19 1016.28 1015.70 1015.01 1014.49 1015.00 1015.87 1016.66 1017.70 1018.45 1018.53 1018.22 1018.34 1017.85 1017.18 1016.45 1015.62 1015.01 1014.42 1014.04 1013.88 1013.85 1013.93 1014.05 1014.19 1014.46 1014.38 1014.57 1014.89 1015.29 1015.60 1015.90 1016.17 1016.50 1016.53 1016.85 1016.93 1016.64 1016.60 1016.70 1016.82 1017.01 1017.17 1017.28 1017.21 1017.19 1017.30
1019.56 1019.16 1019.05 1018.19 1017.64 1017.32 1016.37 1015.81 1015.42 1014.96 1014.10 1014.25 1014.88 1015.58 1016.52 1017.11 1017.01 1017.03 1017.18 1016.73 1016.20 1015.87 1015.60 1015.09 1014.52 1014.30 1014.22 1014.09 1013.99 1013.90 1013.98 1014.12 1014.36 1014.51 1014.68 1015.00 1015.38 1015.85 1016.08 1016.24 1016.41 1016.60 1016.91 1017.35 1017.80 1017.85 1018.16 1017.80 1017.65 1017.59 1017.50 1017.37 1017.35 1017.44
1017.06 1017.22 1016.81 1016.89 1016.51 1016.20 1015.78 1015.56 1015.42 1015.29 1015.14 1015.34 1015.43 1015.43 1015.67 1016.00 1015.91 1015.50 1015.34 1015.10 1014.75 1014.74 1014.48 1014.29 1014.23 1014.26 1014.28 1014.48 1014.74 1014.95 1015.03 1015.03 1015.01 1015.19 1015.41 1015.71 1015.96 1016.23 1016.38 1016.47 1016.57 1016.73 1016.91 1017.06 1017.30 1017.94 1018.44 1018.25 1018.20 1017.84 1017.56 1017.17 1016.90 1016.69
1016.46 1016.39 1016.61 1016.69 1016.64 1016.59 1016.15 1015.83 1015.50 1015.24 1015.07 1015.12 1015.11 1015.11 1015.18 1015.48 1015.41 1015.37 1015.08 1014.86 1014.86 1014.96 1014.96 1015.01 1015.09 1015.20 1015.09 1015.19 1015.39 1015.63 1016.08 1016.63 1016.89 1016.79 1016.60 1016.71 1016.89 1017.07 1017.12 1017.12 1017.11 1017.16 1017.19 1017.18 1017.09 1017.02 1017.39 1017.29 1017.06 1017.05 1017.10 1017.29 1017.32 1017.41
1016.02 1016.21 1016.21 1016.19 1016.35 1016.21 1015.84 1015.71 1015.56 1015.47 1015.30 1015.28 1015.26 1015.42 1015.58 1015.95 1015.90 1015.90 1015.48 1015.21 1015.26 1015.65 1016.12 1015.70 1015.69 1015.83 1015.98 1016.11 1016.49 1016.84 1016.81 1017.06 1017.36 1017.67 1017.66 1017.79 1017.94 1017.90 1017.58 1017.46 1017.36 1017.53 1017.40 1017.23 1017.02 1016.82 1016.76 1017.08 1017.28 1017.33 1017.45 1017.51 1017.37 1017.20
1015.42 1015.71 1015.85 1016.06 1016.20 1016.29 1016.29 1016.13 1016.08 1015.83 1015.73 1015.92 1015.91 1016.03 1016.23 1016.42 1016.84 1017.03 1016.60 1016.42 1016.35 1016.33 1016.57 1016.79 1016.54 1016.81 1017.04 1016.99 1016.88 1017.05 1017.47 1018.29 1019.31 1019.21 1019.09 1019.33 1019.39 1019.25 1018.65 1017.84 1017.82 1017.54 1017.30 1017.06 1016.85 1016.59 1016.46 1016.49 1016.56 1016.65 1016.73 1016.75 1016.75 1016.72
Wind_Speed
8 11 12 12 13 13 14 14 15 15 15 15 15 15 14 14 14 10 4 3 6 8 14 15 13 8 11 4 8 4 12 10 8 13 12 11 10 3 11 11 17 16 7 14 16 17 19 8 5 6 9 5 4 6
9 11 13 12 12 13 13 14 14 15 15 14 14 14 14 13 13 12 5 1 3 6 12 16 16 16 12 10 7 7 6 5 9 6 5 5 7 1 12 3 12 2 4 7 8 6 7 6 9 6 7 7 6 8
9 11 11 11 12 13 14 14 15 14 15 14 14 14 14 13 12 9 6 5 6 7 11 13 9 7 7 11 10 7 6 7 1 7 5 6 2 3 7 5 4 7 6 12 6 7 8 7 6 7 5 8 7 9
10 11 12 11 13 13 14 15 14 14 14 14 15 15 14 12 12 11 6 3 6 7 7 5 3 5 3 5 8 10 9 4 7 5 7 6 8 8 3 9 10 3 7 14 4 10 7 6 8 13 10 8 9 9
10 11 9 10 12 13 13 13 14 15 15 15 15 15 15 13 12 9 7 6 5 4 8 9 14 7 5 7 9 10 9 8 7 5 5 6 5 6 8 14 8 7 6 9 4 6 10 16 11 13 12 10 9 11
10 9 9 11 12 12 13 14 15 16 17 18 18 17 17 14 9 6 4 4 4 3 4 6 6 5 4 6 10 10 9 9 8 4 6 4 4 3 6 11 12 3 0 10 5 16 6 18 15 13 13 13 12 11
8 10 10 11 12 13 13 15 16 18 19 19 18 18 14 8 9 4 6 4 4 2 4 7 4 8 3 5 8 8 9 7 8 8 8 4 5 5 7 13 9 17 6 11 24 20 5 9 11 12 12 13 12 11
8 9 11 11 13 13 14 16 17 18 19 19 18 15 12 10 10 4 4 4 4 4 4 5 4 5 1 2 3 7 8 9 10 9 10 10 7 4 6 12 17 7 20 3 4 2 3 9 13 10 10 12 15 12
9 10 12 10 12 14 15 17 18 19 20 18 13 6 4 5 1 3 6 4 4 4 4 3 5 2 4 5 4 4 6 10 6 12 12 8 10 10 10 11 19 9 7 8 6 4 4 12 13 11 12 12 13 12
10 10 9 10 11 13 15 17 19 22 25 20 7 5 1 3 3 4 5 2 4 5 6 5 8 5 7 4 3 2 5 8 10 13 11 13 16 15 16 17 13 9 7 8 8 8 8 11 13 12 10 11 14 13
11 10 9 10 11 13 14 16 19 23 18 3 4 4 3 9 5 4 4 4 3 4 3 2 4 7 3 6 5 3 4 5 6 10 12 13 14 17 17 16 16 12 8 7 6 7 10 9 14 12 11 11 14 14
11 10 9 9 10 12 14 15 15 12 7 9 8 7 5 4 4 5 4 4 4 1 2 2 3 3 4 5 4 4 4 4 7 5 11 15 11 14 21 22 19 15 15 12 10 10 9 9 15 12 11 12 13 14
11 10 8 8 11 13 14 14 13 14 16 3 4 4 3 3 2 6 4 4 3 1 3 4 4 4 4 3 5 5 6 7 4 3 6 9 7 15 15 13 17 19 18 16 12 9 11 10 14 13 13 13 15 16
12 10 9 9 11 13 15 14 13 11 8 3 3 2 4 4 4 2 2 2 2 5 7 6 5 3 4 4 5 6 4 5 5 5 9 4 5 4 3 4 8 10 9 12 10 8 10 12 12 13 15 15 16 14
12 10 10 11 13 14 13 12 13 9 5 4 4 4 6 1 5 3 2 4 3 3 7 7 6 3 3 5 2 5 5 6 4 4 5 6 5 4 2 7 1 7 7 12 10 13 14 15 14 13 14 14 14 13
11 8 12 11 10 8 9 14 12 6 3 4 4 8 4 3 6 3 3 4 3 4 6 4 2 3 4 5 6 6 5 4 4 4 6 6 3 3 4 6 9 9 9 9 11 15 16 16 16 16 15 14 12 11
13 4 9 5 5 9 12 7 3 4 4 4 5 4 6 4 4 4 5 2 4 4 2 2 2 4 5 6 4 2 4 4 6 6 6 7 2 1 7 10 9 11 10 12 14 14 15 16 17 16 16 12 13 12
6 7 8 4 6 8 5 5 3 4 5 6 6 4 2 5 5 6 6 6 4 2 3 2 4 5 4 4 2 5 9 9 9 8 5 6 3 4 9 9 11 13 13 13 14 17 19 18 16 12 15 14 12 12
7 7 9 4 5 5 2 3 3 4 5 5 4 5 4 5 7 5 5 3 3 4 4 3 5 4 2 3 8 10 9 9 9 9 8 2 6 10 11 12 12 13 15 16 16 11 11 12 11 8 8 9 9 9
12 10 6 3 6 3 3 2 2 5 5 4 6 4 4 4 6 5 6 4 3 2 4 4 3 3 4 6 6 8 9 9 6 5 2 4 8 11 12 12 10 15 13 15 14 12 10 7 6 7 7 7 8 7
8 6 6 5 4 3 3 3 3 3 5 4 3 5 5 3 3 3 2 3 2 1 2 2 4 6 6 5 5 4 5 5 6 4 4 6 8 10 11 12 13 11 11 9 7 7 8 8 5 3 6 7 7 6
9 8 3 3 2 2 4 2 4 6 4 4 5 4 3 4 3 3 4 2 2 3 3 3 4 4 4 8 6 7 8 11 11 9 10 10 10 11 11 10 10 9 7 7 8 8 8 6 3 3 5 7 5 7
8 6 2 1 1 1 6 3 2 2 3 4 3 3 2 2 4 5 3 3 3 3 4 2 4 7 8 8 12 13 12 12 9 9 10 10 11 11 10 10 8 10 9 8 7 9 8 6 7 5 2 4 7 7
3 1 2 0 1 2 3 1 1 3 3 2 2 2 4 4 4 3 4 6 6 7 8 11 6 7 9 12 11 10 8 9 11 10 9 11 10 10 10 9 9 8 8 7 7 8 5 6 4 3 4 4 3 4
1 3 2 2 3 0 3 3 2 1 2 2 2 2 2 3 3 4 5 8 9 10 10 10 10 10 10 10 10 9 10 10 11 12 10 10 11 10 9 8 8 7 5 7 5 6 5 5 5 5 4 4 4 3
2 2 1 1 2 1 2 2 2 2 2 1 3 1 1 4 5 5 5 8 7 8 8 8 7 8 8 4 3 3 2 3 9 8 7 9 9 10 10 9 7 6 6 6 7 8 7 6 6 6 6 5 3 6
1 1 3 4 2 1 2 2 3 3 2 3 1 3 4 5 6 4 3 4 5 5 6 4 2 4 6 9 10 9 9 10 11 11 10 10 9 7 8 8 9 6 6 6 6 6 6 6 6 4 3 1 2 2
2 1 2 1 2 3 3 3 1 4 4 2 4 4 4 4 2 4 8 8 6 2 3 4 5 7 8 8 7 7 8 9 9 10 10 11 10 9 10 9 9 13 10 10 4 5 4 3 2 1 0 3 2 1
2 2 2 4 4 5 2 5 5 4 6 10 12 7 4 3 5 6 7 7 7 7 6 4 5 7 8 8 8 8 8 8 10 13 13 10 9 8 7 7 6 6 7 7 12 12 11 9 8 7 4 4 3 3
4 5 3 7 4 6 8 9 12 11 11 12 11 10 10 9 6 5 5 5 7 7 6 7 8 9 9 10 10 11 10 10 9 8 8 9 8 7 6 6 6 6 5 5 6 7 2 6 5 7 5 4 5 5
7 12 16 12 12 10 10 10 9 9 11 11 10 11 11 10 8 6 5 6 9 9 10 10 11 10 11 11 9 10 10 9 11 12 9 7 7 7 6 5 5 4 4 5 4 4 4 5 5 6 9 10 12 10
12 15 14 18 13 10 10 10 10 9 9 11 11 10 11 11 10 10 8 6 9 9 6 8 9 9 9 8 8 7 8 8 8 8 8 6 5 3 2 2 3 4 4 5 5 6 4 5 7 8 8 11 11 11
12 11 11 11 11 11 8 6 7 8 9 10 9 9 9 9 11 6 6 7 7 7 8 7 6 7 6 7 5 7 8 8 7 6 6 7 7 8 9 6 5 6 6 6 7 9 10 9 8 10 12 13 12 12
Wind_Direction
325 330 328 330 330 333 332 333 335 334 337 335 340 344 345 346 350 330 350 40 318 298 297 293 305 314 293 331 339 19 270 197 237 233 248 245 261 265 296 234 177 231 233 225 229 228 226 89 187 263 70 81 60 76
312 323 323 329 334 330 331 331 327 326 330 332 335 335 339 338 340 338 295 17 326 262 290 319 283 282 290 311 308 292 1 343 18 282 302 46 287 246 246 197 203 164 213 301 351 53 66 29 69 79 100 101 101 109
294 312 316 325 326 324 321 319 320 328 327 331 328 329 325 326 329 330 303 331 274 251 267 228 241 172 244 237 264 296 32 6 274 327 337 291 160 300 287 201 299 347 201 246 135 137 101 120 122 112 101 99 118 104
299 303 311 319 322 331 329 326 326 326 323 321 321 316 313 316 317 315 294 308 287 301 280 141 111 204 168 276 235 246 271 324 295 273 277 287 304 31 277 293 274 84 41 292 222 117 126 121 109 97 110 117 116 117
299 305 318 322 320 321 322 322 320 319 320 317 313 310 309 308 303 284 269 244 241 296 327 326 318 249 258 222 232 225 231 247 248 231 265 249 279 315 276 275 267 227 210 209 351 245 196 140 128 125 131 133 117 120
299 307 312 315 322 322 322 322 321 322 319 315 312 309 304 298 279 245 235 181 198 222 276 270 26 205 207 217 220 222 217 223 253 242 219 232 349 260 295 290 285 171 255 312 93 352 294 134 136 151 137 132 132 135
296 301 310 313 320 328 328 324 321 319 316 313 310 306 301 276 240 292 18 45 101 103 255 279 214 156 215 214 199 214 212 223 231 242 231 222 181 212 255 260 291 327 126 278 123 165 180 122 140 136 138 129 126 123
285 294 305 318 321 321 324 324 322 317 313 312 313 309 296 223 257 250 135 170 234 270 256 277 267 167 219 260 255 200 207 208 225 235 248 227 137 184 232 261 276 143 281 190 119 19 39 168 122 128 136 151 128 144
275 286 301 310 321 328 332 331 328 319 315 316 316 295 220 229 260 90 109 224 210 291 296 275 295 30 253 237 187 279 240 215 211 220 230 233 199 216 220 236 272 232 241 286 243 180 231 131 132 155 169 154 141 151
264 278 294 308 318 326 331 333 328 319 313 306 260 209 227 70 119 191 173 206 203 205 227 254 298 304 323 1 330 263 257 241 230 214 227 214 233 229 225 229 243 247 249 236 252 192 227 149 155 173 192 155 150 166
256 267 283 298 314 323 328 333 329 318 287 242 297 32 3 138 222 213 213 227 195 227 197 259 340 312 285 291 290 258 271 255 254 241 209 224 235 221 223 238 230 208 221 229 230 239 211 206 160 179 188 158 153 173
248 256 274 294 309 317 323 329 329 320 355 333 302 284 259 230 216 240 229 192 222 325 340 289 297 231 298 305 277 238 258 285 258 314 227 227 237 228 202 216 233 228 213 225 219 221 230 220 147 172 182 156 157 155
240 247 260 286 302 309 314 319 319 314 293 187 220 237 249 267 314 235 210 184 127 291 234 234 257 228 198 271 270 259 244 236 331 250 240 237 253 208 224 216 209 211 217 222 208 203 210 113 140 168 153 151 141 140
228 244 253 270 287 295 300 306 307 312 271 243 224 250 240 203 242 327 14 126 165 239 275 304 305 250 221 205 229 256 250 280 245 233 238 79 357 27 337 242 229 200 183 196 158 159 143 136 139 139 139 136 136 136
219 235 257 260 263 276 293 293 290 280 273 269 239 244 212 122 274 276 263 231 242 320 294 305 307 272 269 237 251 306 268 239 251 37 359 337 49 50 282 255 160 160 161 117 150 134 128 127 127 128 131 132 128 119
203 240 237 245 266 274 284 279 256 243 244 254 250 257 102 276 264 250 272 306 15 306 311 337 333 305 263 252 211 233 250 1 41 338 341 324 34 80 189 138 121 121 112 122 125 127 130 131 129 125 124 123 121 127
184 238 145 194 230 267 268 266 231 228 263 243 233 229 273 247 289 295 249 353 333 333 281 292 249 252 291 251 232 295 353 323 347 327 334 349 58 107 136 120 114 112 120 120 124 129 126 127 128 124 117 109 109 124
198 171 160 216 270 235 201 225 252 247 249 243 260 2 339 300 301 284 12 18 351 1 271 249 302 238 224 274 287 319 330 328 327 334 301 341 301 146 122 115 122 123 124 125 124 124 126 126 123 125 134 157 166 176
172 154 159 203 296 290 232 221 273 268 261 313 292 266 279 311 7 351 349 322 217 206 262 243 250 250 321 338 321 312 310 311 302 304 326 18 96 107 109 112 112 117 120 123 119 111 108 115 127 143 138 145 155 149
118 135 157 223 261 253 233 220 231 273 283 5 285 318 332 309 347 300 286 263 226 216 220 232 285 334 298 298 288 283 283 285 278 272 115 80 112 113 114 114 116 119 110 106 102 111 130 133 140 143 166 191 131 139
183 132 181 234 191 287 288 281 251 286 316 293 324 356 336 307 285 282 306 338 262 289 265 295 315 313 325 303 299 309 310 45 64 75 89 86 93 98 103 103 105 109 114 116 120 126 138 127 110 134 132 120 105 89
102 171 225 185 254 208 265 245 308 335 281 330 24 344 284 294 316 14 311 304 306 347 8 335 311 319 4 22 20 17 62 67 74 73 71 89 109 107 104 102 110 108 95 87 81 84 95 98 55 52 126 145 192 146
186 224 155 139 311 47 276 28 312 278 286 346 329 282 273 328 6 312 30 317 328 309 312 313 349 40 43 43 54 48 50 65 64 69 75 80 80 80 84 84 86 88 83 70 93 102 96 77 46 34 44 81 92 119
218 355 292 187 152 295 333 268 285 316 331 322 304 332 5 347 354 24 5 353 354 13 29 30 46 67 57 49 49 43 46 65 69 67 69 83 79 74 78 78 80 85 91 97 93 95 85 74 89 105 81 94 159 147
267 350 170 299 309 3 269 305 334 302 287 290 13 6 12 23 34 47 12 356 10 25 23 28 41 46 60 56 45 40 35 64 74 78 73 83 90 89 83 81 90 98 108 101 108 116 141 155 151 162 133 92 91 103
11 144 178 68 272 284 335 300 323 318 282 26 50 48 42 43 44 42 11 346 358 12 8 15 36 53 46 17 45 26 327 167 114 110 147 138 126 118 121 120 127 159 194 132 124 131 138 125 126 135 110 111 64 288
313 32 19 15 353 316 264 246 252 272 19 44 57 54 50 54 44 27 22 39 24 339 322 339 90 65 69 70 74 73 69 66 69 72 70 68 65 76 94 97 94 97 105 110 118 119 120 125 141 159 164 209 70 335
340 315 267 298 233 218 271 232 216 38 14 53 62 59 61 66 137 174 124 116 76 54 64 60 61 61 62 78 92 103 108 107 102 94 90 83 78 77 77 78 67 50 58 37 37 116 123 124 116 122 181 296 327 275
246 208 239 246 200 210 32 41 41 43 67 90 100 89 101 167 186 170 179 187 165 146 127 121 106 98 86 77 65 69 76 79 83 85 85 86 86 81 84 95 98 89 99 103 57 49 31 24 15 4 358 324 344 296
62 158 90 46 45 57 73 94 91 89 90 95 103 103 93 85 94 113 112 107 99 87 78 81 83 79 78 74 71 65 54 48 52 70 80 85 87 88 86 82 84 89 91 95 104 118 131 233 165 211 236 293 278 290
95 91 90 83 83 95 107 118 120 114 114 111 108 106 104 107 101 105 89 71 82 74 72 69 64 54 51 57 67 79 79 70 63 54 56 79 79 76 80 87 86 69 52 31 19 16 26 308 317 332 342 341 332 322
106 99 102 105 108 121 121 108 99 92 106 117 112 102 98 93 76 47 38 69 89 97 73 70 65 69 82 97 97 87 54 73 66 56 48 69 85 80 112 87 61 38 340 326 294 287 302 338 323 307 303 295 287 279
95 96 99 108 114 113 118 103 96 112 117 112 103 93 84 74 68 37 41 50 43 58 66 45 55 89 83 58 58 107 93 78 74 57 45 21 4 347 318 350 3 339 320 313 315 309 309 310 303 304 303 303 307 315